Location: Asheville, NC
(35.6000°N, 82.5500°W)
Time: 11:54:32

STARS - Pass Details

Date: 10 March 2018
Orbit: 625 x 641 km, 98.3° (Epoch: 24 March)

Event Time Altitude Azimuth Distance (km) Brightness Sun altitude
Rises 06:09:50 0° 173° (S) 2,926 ? -8.6°
Reaches altitude 10° 06:12:03 10° 176° (S) 2,022 ? -8.1°
Maximum altitude 06:16:25 65° 258° (WSW) 702 ? -7.2°
Drops below altitude 10° 06:20:50 10° 341° (NNW) 2,035 ? -6.3°
Sets 06:23:03 0° 344° (NNW) 2,947 ? -5.9°
